Lapse_Rate
6.3 6.0 6.1 5.9 5.8 5.8 6.0 5.8 6.1 6.2 6.3 6.4 6.1 6.0 5.9 5.9 6.1 6.1 6.2 6.0 6.0 6.1 5.8 5.8 6.1 6.4 6.4 6.7 6.8 6.9 6.9 6.8 6.8 6.9 7.1 7.0 6.9 6.7 6.2 6.0 6.0 6.0 6.2
6.3 6.2 5.9 5.9 5.8 5.8 5.8 5.9 5.9 5.8 6.0 5.9 5.9 5.8 6.0 5.9 6.4 6.2 6.0 5.9 5.9 5.8 5.7 5.7 6.3 6.3 6.3 6.3 6.4 6.3 6.7 6.6 6.5 6.7 6.9 6.8 6.7 6.7 5.9 5.7 6.0 6.1 5.9
6.3 6.4 5.9 6.1 6.0 5.8 5.9 6.0 6.2 6.0 5.7 6.1 6.2 6.2 6.1 6.0 6.3 6.2 6.0 5.9 6.1 5.7 5.8 6.0 6.0 6.0 6.0 5.9 6.1 6.1 6.4 6.4 6.4 6.6 6.6 6.0 6.2 6.2 5.4 5.5 5.9 6.1 5.7
6.1 6.0 6.2 6.3 5.9 5.8 5.6 5.6 6.1 6.0 5.8 6.0 6.0 6.0 5.8 5.8 6.0 6.2 6.2 6.0 5.9 6.0 5.9 5.8 6.0 5.9 5.8 6.0 5.9 6.0 6.2 6.3 6.5 6.6 6.9 6.5 6.3 5.8 5.6 5.3 5.6 6.0 6.1
5.9 6.1 6.3 6.2 5.8 5.8 5.6 5.5 5.9 6.2 6.0 5.7 5.9 5.9 5.9 6.0 6.1 6.1 6.2 6.0 6.1 5.6 5.9 5.8 6.0 5.7 5.9 6.0 6.1 6.1 6.3 6.3 6.3 6.6 6.5 6.4 6.0 5.7 5.4 5.6 5.9 5.7 5.8
5.8 6.3 6.0 6.0 6.0 5.8 5.7 5.9 5.9 6.2 6.2 6.0 5.9 6.0 5.9 6.0 6.0 6.0 6.3 6.1 6.1 5.8 5.9 5.9 5.9 5.9 6.0 6.1 6.1 6.2 6.3 6.3 6.4 6.4 6.5 6.3 6.0 5.9 5.7 5.6 5.6 5.4 5.4
5.8 6.0 6.4 6.3 6.1 6.1 5.7 5.9 6.1 6.2 6.2 6.2 6.2 5.9 5.7 5.8 5.7 5.8 6.0 6.2 6.0 5.9 6.0 6.2 6.0 5.8 6.0 6.3 6.5 6.5 6.5 6.4 6.2 6.3 6.4 6.3 5.9 5.8 5.8 5.9 5.4 5.1 5.0
5.9 6.0 6.3 6.3 6.1 6.0 5.7 5.9 5.8 5.9 6.4 6.3 6.3 6.2 6.2 6.2 5.8 6.0 6.2 6.3 6.1 6.1 6.0 6.0 6.0 6.1 6.2 6.2 6.2 6.4 6.5 6.3 6.1 6.2 6.0 6.0 5.9 5.9 5.6 5.4 5.3 5.2 4.8
5.9 5.7 6.4 6.3 6.4 6.0 5.8 5.9 5.9 5.8 6.2 6.3 6.1 6.3 6.2 6.4 6.1 6.1 5.8 6.1 6.0 6.1 6.2 6.3 6.1 6.0 6.2 6.2 6.3 6.2 6.0 6.0 6.1 6.2 6.0 5.9 5.8 5.5 5.3 5.3 5.3 5.2 5.1
6.0 5.9 6.1 6.2 6.6 6.3 6.0 5.6 5.8 5.9 5.7 6.4 6.4 6.4 6.2 6.1 6.2 6.4 6.3 6.0 5.9 5.9 6.1 6.1 6.1 6.2 5.8 5.8 5.7 5.8 5.9 5.7 5.6 5.5 5.3 5.2 5.3 5.3 5.2 5.3 5.3 5.5 5.3
6.1 6.2 6.0 6.2 6.4 6.4 5.8 5.7 5.6 6.0 5.8 5.9 6.2 6.1 6.2 6.3 6.4 6.5 6.4 6.4 6.2 5.8 5.8 5.6 5.8 5.9 5.7 5.6 5.8 5.9 6.0 5.8 5.8 5.6 5.3 5.3 5.4 5.3 5.2 5.3 5.3 5.3 5.2
6.0 5.8 5.7 5.9 6.1 6.3 6.2 5.8 5.5 5.6 5.9 5.8 6.1 6.4 6.3 6.2 6.2 6.3 6.4 6.3 6.1 6.3 6.2 5.8 5.7 5.5 5.5 5.7 5.8 5.7 5.8 5.9 5.8 5.8 5.8 5.4 5.4 5.4 5.5 5.6 5.7 5.5 5.3
5.8 6.0 5.9 6.0 5.8 6.1 6.6 6.4 5.6 5.3 5.7 5.5 5.7 6.1 6.4 6.5 6.4 6.3 6.1 6.1 6.2 6.3 6.2 5.9 5.6 5.5 5.4 5.6 5.4 5.6 5.7 5.6 5.7 5.7 5.7 5.8 5.9 5.8 5.5 5.5 5.4 5.5 5.4
5.9 5.9 5.4 5.2 5.4 5.9 6.2 6.5 6.1 5.7 5.6 5.6 5.5 5.5 6.1 6.6 6.6 6.3 6.3 6.2 6.3 6.2 6.1 6.0 5.7 5.6 5.7 5.8 5.6 5.7 6.0 5.9 5.7 5.7 5.6 5.7 5.8 5.6 5.6 5.4 5.2 5.2 5.2
6.4 6.0 5.8 5.2 5.8 5.9 6.1 6.6 6.1 5.6 5.7 5.6 5.4 5.6 5.6 6.0 6.5 6.5 6.4 6.3 6.4 6.3 6.1 6.0 6.1 6.0 5.9 5.8 5.8 5.8 5.6 5.5 5.5 5.3 5.4 5.5 5.5 5.4 5.3 5.4 5.4 5.4 5.3
6.6 6.2 6.1 5.8 5.6 5.0 5.8 5.8 6.0 6.0 5.8 5.7 5.5 5.6 5.6 5.9 6.4 6.5 6.5 6.4 6.4 6.2 5.9 6.0 6.0 6.0 6.0 5.9 5.6 5.5 5.5 5.5 5.4 5.4 5.4 5.4 5.1 5.2 5.1 5.1 5.2 5.2 5.3
7.2 6.8 6.4 5.9 5.3 5.4 5.4 5.4 5.4 5.6 5.9 5.7 5.4 5.4 5.7 5.8 6.1 6.1 6.1 6.4 6.2 6.1 6.1 6.0 5.8 5.5 5.5 5.5 5.4 5.5 5.5 5.5 5.5 5.5 5.4 5.3 5.1 5.0 4.9 4.9 4.8 4.8 4.7
7.2 7.0 6.7 6.4 6.4 5.8 6.1 5.9 5.7 5.4 5.5 5.8 5.5 5.4 5.3 5.5 5.5 5.5 5.8 6.0 6.1 5.9 5.8 5.7 5.6 5.7 5.6 5.7 5.6 5.6 5.5 5.6 5.5 5.5 5.3 5.3 5.0 4.8 4.7 4.5 4.4 4.5 4.6
6.9 6.3 6.8 6.6 6.4 6.6 6.1 5.8 5.2 5.2 4.9 5.0 5.5 5.5 4.8 5.0 5.6 5.4 5.4 5.7 6.0 6.0 5.6 5.6 5.5 5.7 5.6 5.5 5.4 5.5 5.6 5.5 5.5 5.5 5.4 5.3 5.0 5.0 4.8 4.5 4.3 4.4 4.5
6.5 6.4 5.9 6.1 6.4 6.5 6.0 5.7 5.3 5.2 5.7 5.5 5.3 5.1 5.4 5.3 5.3 5.9 5.3 5.7 5.8 6.0 5.8 5.6 5.5 5.5 5.5 5.5 5.6 5.6 5.4 5.3 5.5 5.6 5.4 5.2 5.1 5.0 4.7 4.7 4.6 4.6 4.4
6.3 6.5 6.6 6.2 5.8 6.2 6.6 6.5 6.3 5.7 5.4 5.0 4.7 4.6 4.9 5.0 5.2 5.5 5.7 5.3 5.3 5.4 5.3 5.2 5.3 5.5 5.8 5.8 5.7 5.4 5.3 5.2 5.2 5.5 5.3 5.2 5.2 5.0 5.1 5.0 4.9 4.9 4.6
6.5 6.3 6.6 6.8 6.6 6.6 6.7 6.6 6.6 5.9 5.7 5.2 5.1 5.2 4.8 5.4 5.1 5.2 4.8 5.1 5.2 4.9 5.0 5.1 5.3 5.8 5.7 5.7 5.7 5.5 5.1 5.1 5.0 5.2 5.1 5.2 5.3 5.3 5.3 5.1 5.0 5.0 4.9
6.3 6.4 5.9 6.5 6.6 6.9 7.0 7.0 6.9 6.4 5.4 5.4 5.4 5.3 4.6 4.7 5.1 4.8 4.6 4.7 4.8 4.8 4.8 4.9 5.2 5.6 5.5 5.6 5.5 5.8 5.8 5.6 5.5 5.6 5.7 5.6 5.5 5.4 5.2 5.0 5.0 5.0 4.9
6.3 6.3 6.4 6.5 6.4 6.8 6.7 7.1 7.0 6.6 5.8 5.2 5.0 5.4 5.5 5.1 5.2 5.2 5.2 4.9 4.9 5.2 5.2 5.1 5.2 5.4 5.5 5.9 6.1 5.8 5.6 5.6 5.7 5.7 5.6 5.5 5.4 5.2 5.2 5.2 5.1 4.9 4.8
6.8 6.1 6.3 6.6 6.7 6.8 6.8 6.9 6.9 6.8 6.4 5.9 5.6 5.6 5.5 5.9 5.9 6.6 6.8 6.7 6.5 6.2 6.2 6.2 6.3 6.3 6.1 6.0 5.9 5.8 5.6 5.6 5.6 5.5 5.3 5.2 5.2 5.2 5.2 5.2 5.1 4.9 4.8
7.0 6.8 6.3 6.4 6.8 7.0 7.2 7.2 7.1 7.0 6.9 6.5 6.4 6.6 6.7 6.9 6.6 6.5 6.6 7.1 6.6 6.4 6.4 6.3 6.2 6.1 5.9 5.7 5.6 5.5 5.4 5.5 5.4 5.2 5.2 5.3 5.3 5.3 5.2 5.1 4.9 5.0 4.9
Wind_Speed
7 13 14 13 12 8 7 7 7 6 5 2 2 1 3 2 2 7 12 12 11 10 8 4 4 6 3 3 3 2 4 5 4 2 3 2 4 1 4 5 4 4 7
11 10 13 13 13 13 10 9 9 9 7 4 2 3 2 2 1 3 2 8 10 7 8 5 2 2 2 3 2 3 1 2 4 2 2 3 3 3 1 3 4 4 4
13 12 14 15 13 12 10 11 10 10 8 7 3 2 2 1 2 1 2 5 10 6 5 7 6 3 1 2 1 2 3 3 3 3 3 2 1 3 0 3 4 4 1
10 12 14 14 14 13 10 9 8 7 7 9 5 5 4 3 3 3 3 4 8 6 7 6 5 3 2 3 2 2 2 4 3 1 3 2 2 2 4 1 3 2 4
14 15 17 18 15 13 12 8 8 8 7 8 7 5 4 2 1 2 3 3 3 5 6 8 7 3 3 3 4 3 3 3 3 2 1 0 0 2 1 3 6 2 2
14 16 14 13 13 10 10 9 9 8 7 7 7 7 8 5 3 2 3 3 3 4 8 9 7 5 4 4 2 2 3 2 1 1 2 2 1 1 1 2 3 2 4
6 12 15 14 14 12 12 10 10 9 7 7 7 7 7 7 7 6 4 5 3 3 5 5 6 4 4 5 3 2 1 3 3 3 3 3 2 2 2 2 3 2 2
5 7 15 16 15 15 14 12 13 12 9 8 8 7 8 5 5 5 4 4 4 4 3 5 6 6 8 5 3 1 3 3 2 4 3 2 3 3 3 2 3 2 2
7 11 9 11 13 14 16 16 14 14 12 11 6 7 7 7 6 7 4 3 3 3 5 6 6 5 5 4 3 3 3 3 3 4 3 1 1 2 3 3 2 3 1
8 6 6 12 16 17 17 16 15 16 13 10 8 8 8 8 7 6 7 6 4 3 4 5 5 5 4 4 3 2 3 3 2 2 2 1 2 3 3 3 2 1 3
3 4 2 4 15 16 17 18 15 15 12 12 10 10 8 8 6 6 6 6 5 6 6 5 5 5 6 4 4 4 3 4 4 3 3 5 3 3 3 2 1 1 2
4 3 1 4 3 12 13 15 14 14 15 14 12 11 9 7 7 6 7 6 6 5 6 6 6 6 6 5 5 5 3 4 4 5 3 5 3 4 1 2 3 2 2
4 5 4 3 3 2 7 12 14 15 12 11 12 11 10 9 9 8 6 7 7 7 7 6 6 6 6 6 6 5 5 5 5 5 4 5 3 4 2 2 3 3 2
3 4 1 4 4 4 5 2 6 7 9 9 10 11 11 11 9 9 8 9 8 8 7 7 7 6 6 5 5 5 5 4 4 5 5 5 4 5 4 4 4 4 3
2 6 4 2 5 5 5 6 4 3 5 8 7 10 10 9 10 9 10 10 8 9 7 6 6 6 5 4 6 5 5 5 5 5 5 5 5 6 5 3 3 3 2
2 1 6 4 2 5 3 4 4 3 3 5 5 3 5 7 9 9 8 7 8 7 6 6 6 6 4 7 8 5 2 4 4 5 5 4 2 2 3 6 4 3 3
4 3 4 3 4 5 2 3 5 4 4 4 3 1 2 4 9 9 8 8 7 5 7 6 6 5 2 4 3 1 3 4 2 2 4 0 2 4 4 4 0 5 6
4 3 1 4 1 3 2 3 5 4 3 6 3 3 1 4 8 9 10 7 5 6 4 3 3 5 4 6 5 3 2 2 4 4 4 4 4 5 5 3 3 5 6
2 2 2 1 2 4 2 2 5 9 10 10 10 6 6 7 7 9 8 4 4 6 5 4 4 4 3 7 6 4 3 4 5 5 6 5 5 11 10 2 4 5 5
3 2 1 2 3 4 4 3 2 1 3 4 5 4 5 5 7 6 4 5 6 6 5 6 5 7 4 8 5 2 3 4 3 4 5 10 7 10 11 4 3 4 3
5 4 3 1 4 4 5 2 4 2 2 2 6 7 7 8 6 5 6 9 8 7 7 7 5 5 4 5 7 6 3 5 4 3 2 3 6 6 8 8 4 3 5
4 3 3 4 5 5 1 4 4 1 4 5 6 6 7 5 5 8 5 9 6 8 6 6 5 4 5 9 9 10 9 8 5 3 2 3 7 9 9 6 6 8 8
4 3 4 4 3 5 6 3 1 4 6 6 6 9 7 6 6 8 5 8 5 5 5 4 4 4 4 5 11 12 11 10 6 4 5 7 8 8 7 11 11 7 4
4 4 5 4 4 4 3 4 5 4 5 7 7 7 8 7 7 5 4 5 5 5 5 5 4 4 3 3 3 4 5 8 6 6 5 7 7 8 6 5 6 4 4
6 5 6 4 3 3 4 3 2 3 5 7 5 7 6 6 5 5 3 4 2 1 4 3 5 5 3 2 3 4 4 4 4 5 3 3 3 4 4 4 5 4 4
6 5 6 6 4 2 4 5 4 3 5 6 4 4 4 5 3 5 5 14 10 6 6 8 4 3 10 9 7 8 8 8 5 4 3 2 3 3 2 3 3 3 5
Wind_Direction
182 175 179 181 172 174 176 191 171 172 150 148 147 88 222 209 173 187 197 173 181 172 155 124 141 165 180 157 260 75 71 26 21 33 325 16 310 202 263 253 277 326 334
166 173 169 180 183 183 181 186 182 181 175 156 167 166 178 225 120 172 215 179 198 188 172 162 152 187 121 90 73 81 85 62 14 127 50 0 336 290 193 294 291 258 301
175 171 174 183 188 186 187 186 184 184 171 155 132 99 59 59 105 308 184 236 234 192 178 181 183 209 76 102 185 109 113 127 14 355 132 61 304 337 231 234 251 242 326
177 177 177 184 196 192 190 184 174 177 185 165 154 158 177 171 209 192 190 224 230 187 180 175 186 188 145 219 210 161 146 102 187 301 65 48 119 101 338 297 214 191 234
169 184 186 186 197 188 189 182 167 172 189 169 168 159 174 201 234 194 215 235 241 219 217 215 212 200 197 216 215 159 144 170 151 177 121 81 192 100 106 301 325 20 168
181 188 190 181 192 187 187 176 176 183 193 174 177 174 175 181 189 227 220 199 225 216 222 219 218 202 225 223 215 150 176 193 221 140 167 180 164 130 176 275 292 276 316
193 174 187 185 187 183 188 183 178 189 200 193 176 182 194 186 197 213 214 180 190 227 233 209 216 216 235 242 223 184 219 209 199 181 221 213 191 151 183 184 278 272 306
237 203 196 193 193 183 184 188 185 192 200 200 197 185 187 192 205 219 205 213 204 218 235 208 213 213 217 216 238 243 246 233 219 202 234 232 231 204 202 202 201 332 312
206 206 217 201 193 191 186 190 189 200 196 202 190 203 186 192 203 209 209 231 221 211 216 207 192 206 222 209 204 223 246 239 228 232 219 173 291 229 240 229 207 154 309
208 174 191 211 202 197 193 190 196 197 195 196 194 203 204 196 197 186 209 220 211 191 199 198 211 232 232 228 227 252 249 221 249 276 285 228 242 250 234 239 238 166 167
194 165 336 308 210 203 196 193 194 196 193 193 196 200 206 208 196 192 200 207 193 195 209 210 240 235 235 236 222 231 236 244 283 285 263 275 265 275 266 235 246 228 165
236 180 317 331 341 204 199 195 195 195 199 195 193 205 208 203 203 207 194 194 200 200 208 211 225 226 236 236 226 233 231 233 245 257 249 264 270 286 276 261 255 232 215
139 167 126 64 14 348 206 188 193 209 198 191 196 198 205 208 208 206 197 199 193 202 212 216 224 227 223 223 226 221 226 231 244 252 252 267 258 279 264 249 267 268 256
138 153 183 120 91 50 52 96 188 186 188 189 191 204 202 209 215 212 198 204 208 211 209 208 214 223 232 235 240 235 241 252 257 262 257 263 262 264 275 260 251 251 256
109 167 163 142 120 87 62 63 38 98 163 171 184 207 210 206 214 211 211 212 209 215 215 213 218 217 218 224 233 239 244 259 267 260 264 251 254 274 288 281 281 270 254
204 36 178 163 130 113 128 143 76 15 208 141 158 135 247 207 218 211 207 206 218 215 202 215 215 221 231 230 234 220 236 281 268 262 254 234 106 350 7 352 285 254 250
228 154 125 140 204 217 199 161 157 186 218 113 93 32 223 255 240 223 208 207 205 198 213 212 200 216 32 14 118 273 190 238 255 284 281 246 60 3 333 317 60 60 30
227 225 273 119 135 81 108 170 197 188 240 213 159 140 333 324 256 240 213 210 171 173 190 157 124 104 65 33 40 350 204 94 52 45 31 30 358 355 329 316 80 46 23
193 210 220 216 216 212 202 216 197 211 210 205 193 188 178 280 289 246 217 149 118 111 100 102 99 114 71 9 5 348 132 98 64 45 37 26 12 353 340 252 126 94 81
109 149 10 323 261 285 263 223 261 298 225 201 183 137 151 175 225 217 148 110 108 111 109 82 70 67 60 10 351 35 133 115 101 73 55 45 40 22 11 74 109 103 112
92 99 85 352 299 270 258 129 93 93 65 92 134 139 118 111 102 85 136 109 110 109 99 94 67 72 56 40 39 46 96 127 111 85 60 38 37 43 60 69 77 76 86
93 91 72 47 352 340 157 101 95 43 96 75 80 82 97 121 117 122 89 87 111 118 106 103 84 65 53 36 44 66 72 97 107 100 73 59 47 40 37 41 65 102 111
142 119 100 65 24 13 8 65 65 100 108 102 81 89 76 63 91 101 131 103 97 92 108 114 102 76 39 51 46 61 73 70 86 91 100 81 57 48 41 41 46 47 56
164 141 99 64 60 41 25 38 24 354 81 91 94 88 88 81 66 65 81 112 123 136 146 133 118 96 70 54 29 54 70 78 88 101 79 87 84 74 60 48 45 49 67
169 165 129 113 86 83 83 64 111 102 84 86 84 99 99 96 88 57 46 89 19 22 151 144 138 138 141 132 70 73 78 68 69 77 54 51 41 54 45 41 39 36 48
162 141 123 118 103 88 106 116 110 105 104 110 113 104 112 106 101 116 96 54 38 33 84 102 121 62 110 126 111 97 87 66 74 56 64 56 54 72 76 80 53 32 49